Location: Oberwangen
(47.4286°N, 8.9679°E)
Time: 14:14:09
(UTC+00:00)

Cosmos 2100 Rocket - Pass Details

Date: 20 June 2021
Orbit: 955 x 1001 km, 82.9° (Epoch: 02 August)

Event Time Altitude Azimuth Distance (km) Brightness Sun altitude
Rises 19:54:30 0° 353° (N) 3,736 7.9 -4.7°
Reaches altitude 10° 19:57:06 10° 357° (N) 2,779 7.1 -5.0°
Maximum altitude 20:03:24 60° 77° (ENE) 1,131 4.2 -5.8°
Drops below altitude 10° 20:09:36 10° 157° (SSE) 2,736 5.8 -6.5°
Enters shadow 20:10:49 - 159° (SSE) 3,178 6.1 -6.7°
